#timestamp,LO_Frequency,Hit,StdDev 
1650524415.0,286046992.5,P
1650524415.9,286046992.5,N
1650524435.8,286046994.4,N
1650524455.6,286046990.6,N
1650524475.5,286046998.6,N
1650524495.3,286046997.2,N
1650524515.1,286046998.0,N
1650524535.9,286047007.7,N
1650524555.7,286047005.3,N
1650524575.6,286047000.7,N
1650524595.4,286046998.8,N
1650524615.2,286046996.8,N
1650524635.1,286046997.2,N
1650524636.0,286046997.2,N
1650524655.8,286047001.3,N
1650524675.6,286047005.6,N
1650524695.5,286047009.7,N
1650524715.3,286047009.6,N
1650524735.2,286047010.2,N
1650524755.0,286047006.9,N
1650524755.9,286047006.9,N
1650524775.7,286047000.5,N
1650524795.6,286046995.9,N
1650524815.4,286046992.6,N
1650524835.3,286046991.2,N
1650524855.1,286046988.0,N
1650524856.0,286046988.0,N
1650524875.8,286046988.4,N
1650524895.7,286046984.6,N
1650524915.5,286046986.2,N
1650524935.4,286046984.9,N
1650524955.2,286046989.7,N
1650524975.1,286046988.5,N
1650524976.0,286046988.5,N
1650524995.8,286046988.3,N
1650525015.6,286046987.4,N
1650525035.5,286046986.6,N
1650525055.3,286046983.7,N
1650525075.1,286046990.0,N
1650525095.9,286046986.8,N
1650525115.7,286046983.8,N
1650525135.6,286046982.6,N
1650525155.4,286046986.3,N
1650525175.2,286046979.3,N
1650525195.1,286046979.1,N
1650525196.0,286046979.1,N
1650525215.8,286046979.9,N
1650525235.6,286046979.8,N
1650525255.5,286046983.9,N
1650525275.3,286046987.2,N
1650525295.2,286046986.3,N
1650525315.9,286046983.0,Y
1650525335.7,286046999.6,P
1650525355.6,286046994.8,N
1650525375.4,286046990.3,N
1650525395.2,286046988.5,N
1650525415.1,286046996.3,N
1650525416.0,286046996.3,N
1650525435.8,286047001.6,N
1650525455.7,286047001.3,N
1650525475.5,286046999.1,N
1650525495.3,286047001.0,N
1650525515.2,286047001.0,N
1650525535.0,286047001.8,N
1650525535.9,286047001.8,N
1650525555.8,286046997.5,N
1650525575.6,286046990.2,N
1650525595.4,286046989.9,N
1650525615.3,286046985.3,N
1650525635.1,286046985.0,N
1650525655.8,286046983.7,N
1650525675.7,286046989.6,N
1650525695.5,286046990.3,N
1650525715.4,286046997.4,N
1650525735.2,286046993.7,N
1650525755.0,286046989.8,N
1650525755.9,286046989.8,N
1650525775.8,286046988.4,N
1650525795.6,286046987.8,N
1650525815.4,286046985.7,N
1650525835.3,286046988.9,N
1650525855.1,286046995.5,N
1650525875.9,286047001.0,N
1650525895.7,286046997.4,N
1650525915.5,286046994.6,N
1650525935.4,286046996.2,N
1650525955.2,286047001.4,N
1650525975.0,286047007.7,N
1650525975.9,286047007.7,N
1650525995.8,286047006.5,N
1650526015.6,286047002.6,N
1650526035.5,286046996.5,N
1650526055.3,286046994.7,N
1650526105.2,286047000.0,E
1650526115.1,286047003.5,N
1650526116.0,286047003.5,P
1650526135.8,286047009.0,P
1650526155.7,286047014.2,Y
1650526175.5,286047008.5,P
1650526195.3,286047007.5,P
1650526215.2,286047003.1,N
1650526235.0,286047004.9,N
1650526235.9,286047004.9,N
1650526255.8,286047003.7,N
1650526275.6,286047002.8,N
1650526295.4,286047001.8,N
1650526315.3,286047002.1,N
1650526335.1,286046991.8,Y
1650526355.8,286046984.5,P
1650526375.7,286046989.4,N
1650526395.5,286046991.0,N
1650526415.4,286046994.1,N
1650526435.2,286046992.2,N
1650526455.0,286046994.2,N
1650526455.9,286046994.2,N
1650526475.8,286046997.9,N
1650526495.6,286046997.2,N
1650526515.4,286046993.9,N
1650526535.3,286046985.3,Y
1650526555.1,286046985.8,P
1650526575.9,286046980.9,P
1650526595.7,286046984.8,N
1650526615.5,286046985.6,Y
1650526635.4,286046995.9,P
1650526655.2,286046988.9,N
1650526675.0,286046985.6,P
1650526676.0,286046985.6,Y
1650526695.8,286046997.1,P
1650526715.6,286046999.6,N
1650526735.5,286046994.5,N
1650526755.3,286046991.2,N
1650526775.1,286046994.5,N
1650526795.9,286046995.8,N
1650526815.7,286046995.8,N
1650526835.6,286046993.9,N
1650526855.4,286046995.4,N
1650526875.2,286046995.6,N
1650526895.1,286046988.8,Y
1650526896.0,286046988.8,P
1650526915.8,286046992.0,N
1650526935.6,286046992.2,P
1650526955.5,286046999.3,N
1650526975.3,286047009.1,N
1650526995.1,286047008.1,N
1650527015.9,286047010.1,N
1650527035.7,286047004.5,N
1650527055.6,286047010.9,N
1650527075.4,286047011.1,N
1650527095.2,286047013.4,N
1650527115.1,286047009.4,N
1650527116.0,286047009.4,N
1650527135.8,286047011.4,N
1650527155.6,286047012.8,N
1650527175.5,286047013.7,N
1650527195.3,286047003.0,N
1650527215.2,286047001.0,N
1650527235.9,286046995.7,N
1650527255.7,286046993.9,N
1650527275.6,286046992.7,N
1650527295.4,286046991.2,N
1650527315.2,286046989.6,N
1650527335.1,286046988.3,N
1650527336.0,286046988.3,N
1650527355.8,286046988.3,N
1650527375.7,286046987.5,N
1650527395.5,286046990.6,N
1650527415.3,286046992.7,N
1650527435.2,286046990.4,N
1650527455.0,286046988.9,N
1650527455.9,286046988.9,N
1650527475.8,286046990.8,N
1650527495.6,286046990.8,N
1650527515.4,286046993.5,N
1650527535.3,286046997.0,N
1650527555.1,286047001.2,N
1650527575.8,286046994.8,N
1650527595.7,286046989.6,N
1650527615.5,286046990.3,N
1650527635.4,286046993.8,N
1650527655.2,286046993.5,N
1650527675.0,286046993.1,N
1650527675.9,286046993.1,N
1650527695.8,286046991.1,N
1650527715.6,286046993.8,N
1650527735.4,286046991.3,N
1650527755.3,286046991.1,N
1650527775.1,286046993.8,N
1650527795.9,286046991.4,Y
1650527815.7,286046994.2,P
1650527835.6,286046989.4,P
1650527855.4,286046985.6,P
1650527875.2,286046987.9,Y
1650527895.1,286046999.1,P
1650527896.0,286046999.1,N
1650527915.8,286047006.2,N
1650527935.7,286047016.0,N
1650527955.5,286047023.4,N
1650527975.3,286047026.8,N
1650527995.2,286047026.2,N
